STARLINK-5400, 54861

Orbit data source: Space-Track

STARLINK-5400, 54861 is a payload satellite owned by SpaceX/Seattle (US) in LEO that was launched on Wed, 28 Dec 2022 UTC via an FALCON 9 launch vehicle from the Air Force Eastern Test Range (AFETR). Payload-class satellites include a variety of spacecraft equipped with specific instruments for various scientific and technological missions. These include communications satellites like Starlink; space stations such as the ISS; scientific satellites like the Hubble; Earth observation satellites from companies like Planet Labs, Umbra, and HawkEye 360; GPS; miniature CubeSats for education and research; and military/defense satellites.

Loading next visibility...
Identifier
54861, 2022-177AT
Orbit
LEO
Country
Flag of USUS
Related business
Manufacturer
SpaceX/Seattle
Mission
Operational Commercial Communications
Bus & Motor
STARLINK, Unknown motor
Mass
305 kg wet, ~290 kg dry
Launch date (UTC)
2022-12-28 (3 years ago)
Launch vehicle
FALCON 9
Launch site
Air Force Eastern Test Range (AFETR)
Object type
Payload
Rocket body
Debris
Shape & HBR
Box + 1 Pan, 10.1 m
Radar Cross Section
13.562 m², Large (>1 m²)

Expand to show TLE details & history
Last TLE update: 3 days ago

TLE from 3 days ago
0 STARLINK-5400
1 54861U 22177AT  26170.75354243  .00070459  00000-0  25826-2 0  9992
2 54861  43.0010 264.8679 0002448  71.5275 288.5842 15.27103715192709
Epoch: 2026-06-19T18:05Z
TLE epoch observation values (Epoch: 2026-06-19T18:05:06.065Z)
Latitude
-0.00007°
Longitude
85.61457°
Altitude
483.716 km
Speed
7.626 km/s
True Right ascension
17h 39m 28s
True Declination
0° 00' 00"
Sunlit
Object was in full shadow at epoch
Visualization orbit readout
Latitude
Unknown
Longitude
Unknown
Altitude
Unknown
Speed
Unknown
Apparent Right ascension
Unknown
Apparent Declination
Unknown
Sunlit
N/A
Visualization observer readout
Local Sidereal Time
21:24:42
Azimuth
Unknown
Elevation
Unknown
Doppler factor
Unknown
Orbital elements
Apogee altitude
488.101 km
Perigee altitude
484.74 km
Semi-major axis
6,864.557 km
Eccentricity
0.00024
Inclination
43.001°
RAAN
264.8679°
Arg. of periapsis
71.5275°
True anomaly
288.55761°
Mean anomaly
288.5842°
Eccentric anomaly
288.5709°
Mean motion
3.81614 °/min
Orbital period
94.34 mins
BSTAR
0.0025826
Loading maneuver chart data...
Computing Atmospheric mass density...
Loading historical data...
Loading historical data...
Loading historical data...
Loading historical data...
Loading historical data...
Loading historical data...
Loading historical data...

Documentation

Showing up to 5 results
|